Miscellaneous Local Product
Issued by NWS North Platte, NE

Home | Current Version | Previous Version | Text Only | Print | Product List | Glossary On
Versions: 1 2 3 4 5 6 7 8 9 10 11 12 13 14 15 16 17 18 19 20 21 22 23 24 25 26 27 28 29 30 31 32 33 34 35 36 37 38 39 40 41 42 43 44 45 46 47 48 49 50
000
AXUS43 KLBF 210910
MISLBF


WESTERN AND NORTH CENTRAL NEBRASKA HOURLY WEATHER ROUNDUP
NATIONAL WEATHER SERVICE NORTH PLATTE NE
400 AM CDT WED JUN 21 2017

NOTE: "FAIR" INDICATES FEW OR NO CLOUDS BELOW 12,000 FEET WITH NO
SIGNIFICANT WEATHER AND/OR OBSTRUCTIONS TO VISIBILITY.

NOTE: STATIONS NOT REPORTING VARIABLES SUCH AS SKY/WEATHER OR
PRESSURE ARE PROVIDED BY RAWS AND APRS NETWORKS AND ARE NOT UNDER
NATIONAL WEATHER SERVICE QUALITY CONTROL.

...OBSERVATIONS IN AND NEAR THE EASTERN PANHANDLE OF NEBRASKA...

CITY           SKY/WX    TMP DP  RH WIND       PRES   REMARKS
PINE RIDGE     CLEAR     67  54  63 CALM      29.81F
GORDON         FAIR      68  60  75 CALM      29.82F
CHADRON        CLEAR     60  49  66 SE5       29.81S
ALLIANCE       CLEAR     58  48  69 W5        29.86F
SIDNEY         CLEAR     63  51  65 SW8       29.93F
CRESCENT LAKE    N/A     68  48  48 SW6         N/A
$$

...OBSERVATIONS IN NORTHERN NEBRASKA AND FAR SOUTHERN SOUTH DAKOTA...

CITY           SKY/WX    TMP DP  RH WIND       PRES   REMARKS
WINNER         TSTM      64  56  75 E22G28    29.83F
VALENTINE      CLOUDY    71  53  52 NE5G17    29.80S
THEDFORD       CLOUDY    72  64  75 S8        29.82F
AINSWORTH      CLOUDY    72  62  71 S13       29.77F
O`NEILL        CLEAR     65  54  67 SE7       29.80F
ORD            CLEAR     66  56  70 CALM      29.80F
BROKEN BOW     CLEAR     70  63  78 S7        29.82F
VALENTINE NWR    N/A     70  60  70 S10         N/A
HALSEY           N/A     72  63  73 S7G14       N/A
BUTTE            N/A     66  53  62 SE15        N/A
CHAMBERS         N/A     64  52  65 W3          N/A
$$

...OBSERVATIONS IN SOUTHWEST NEBRASKA AND FAR NORTHEAST COLORADO...

CITY           SKY/WX    TMP DP  RH WIND       PRES   REMARKS
WRAY           FAIR      72  55  56 SW9       29.92F
IMPERIAL       CLOUDY    79  54  41 SW17G24   29.86R
OGALLALA       PTCLDY    64  58  82 CALM      29.84F
NORTH PLATTE   PTCLDY    67  64  90 SE7       29.82F
MCCOOK         PTCLDY    71  63  75 SW10      29.81F
LEXINGTON      CLEAR     70  64  83 SE7       29.82F
STAPLETON        N/A     67  63  87 CALM        N/A
GOTHENBURG       N/A     68  61  77 E3          N/A
CALLAWAY         N/A     68  64  86 S10         N/A
$$

...OBSERVATIONS IN CENTRAL LINCOLN COUNTY AREA...

CITY           SKY/WX    TMP DP  RH WIND       PRES   REMARKS
N.P. AIRPORT   PTCLDY    67  64  90 SE7       29.82F
N.P. DOWNTOWN    N/A     70  64  82 CALM        N/A
N.P. SOUTHEAST   N/A     70  64  81 S3          N/A
N.P. HILLCREST   N/A     69  64  84 SE5         N/A
$$

...SOME OBSERVATIONS FROM AROUND THE REGION...

CITY           SKY/WX    TMP DP  RH WIND       PRES   REMARKS
DENVER         PTCLDY    68  46  45 S12       30.04F
LIMON          CLOUDY    55  51  86 CALM      30.07F
ASPEN          CLOUDY    54  41  61 S7        30.32S
LARAMIE        CLOUDY    54  42  64 SW9       30.17F
CASPER         CLOUDY    60  45  57 W7        29.99F
CHEYENNE       CLOUDY    60  44  55 W8        30.08F
SCOTTSBLUFF    CLEAR     63  52  67 N6        29.89F
GRAND ISLAND   CLEAR     72  64  76 S10       29.84F
OMAHA          CLEAR     72  56  57 SE10      29.85F
SIOUX FALLS    PTCLDY    62  51  67 E8        29.86F
PIERRE         CLOUDY    60  55  83 E14       29.75R
RAPID CITY     PTCLDY    59  51  75 N12       29.81S
BISMARCK       CLOUDY    61  49  64 SE8       29.81F
KANSAS CITY    PTCLDY    74  67  78 SW10      29.91R
HILL CITY      PTCLDY    66  64  93 W3        29.94R
WICHITA        MOCLDY    72  64  76 S9        29.92F
DODGE CITY     PTCLDY    69  63  81 S9        29.94F
OKLAHOMA CITY  PTCLDY    67  62  84 S6        29.95S
DALLAS         PTCLDY    77  67  71 CALM      29.91F
AMARILLO       CLOUDY    76  64  66 S22       30.02F
$$




USA.gov is the U.S. government's official web portal to all federal, state and local government web resources and services.